| time (UTC) | temp F | wind direction | speed MPH | gust MPH | rain 1hr in | rain 24hr in | rain mn in | humidity % | barometer mb |
| 20260901013520 | 80 | 0 | 3.0 | 5.0 | 0.00 | 0.00 | 0.00 | 28 | 1006.0 |
| 20260901012519 | 81 | 0 | 3.0 | 5.0 | 0.00 | 0.00 | 0.00 | 28 | 1006.1 |
| 20260901011540 | 82 | 0 | 4.0 | 8.0 | 0.00 | 0.00 | 0.00 | 28 | 1006.2 |
| 20260901010519 | 82 | 0 | 5.0 | 8.0 | 0.00 | 0.00 | 0.00 | 27 | 1006.4 |
| 20260901005520 | 83 | 0 | 4.0 | 7.0 | 0.00 | 0.00 | 0.00 | 27 | 1006.6 |
| 20260901004519 | 83 | 0 | 4.0 | 8.0 | 0.00 | 0.00 | 0.00 | 26 | 1006.6 |
| 20260901003519 | 84 | 0 | 5.0 | 11.0 | 0.00 | 0.00 | 0.00 | 24 | 1006.8 |
| 20260901002519 | 84 | 0 | 3.0 | 5.0 | 0.00 | 0.00 | 0.00 | 25 | 1007.1 |
| 20260901001540 | 84 | 0 | 3.0 | 10.0 | 0.00 | 0.00 | 0.00 | 25 | 1007.2 |
| 20260901000519 | 84 | 0 | 3.0 | 7.0 | 0.00 | 0.00 | 0.00 | 24 | 1007.4 |
| 20260831235540 | 84 | 0 | 3.0 | 8.0 | 0.00 | 0.00 | 0.00 | 25 | 1007.5 |
| 20260831234539 | 84 | 0 | 4.0 | 8.0 | 0.00 | 0.00 | 0.00 | 24 | 1007.6 |
| 20260831233519 | 84 | 0 | 3.0 | 8.0 | 0.00 | 0.00 | 0.00 | 24 | 1007.7 |
| 20260831232519 | 84 | 0 | 4.0 | 9.0 | 0.00 | 0.00 | 0.00 | 23 | 1007.8 |
| 20260831231520 | 84 | 0 | 4.0 | 8.0 | 0.00 | 0.00 | 0.00 | 24 | 1008.2 |
| 20260831230519 | 84 | 0 | 3.0 | 9.0 | 0.00 | 0.00 | 0.00 | 24 | 1008.3 |
| 20260831225521 | 84 | 0 | 4.0 | 8.0 | 0.00 | 0.00 | 0.00 | 24 | 1008.5 |
| 20260831224519 | 84 | 0 | 4.0 | 10.0 | 0.00 | 0.00 | 0.00 | 23 | 1008.6 |
| 20260831223519 | 83 | 0 | 4.0 | 10.0 | 0.00 | 0.00 | 0.00 | 23 | 1008.6 |
| 20260831222519 | 83 | 23 | 3.0 | 8.0 | 0.00 | 0.00 | 0.00 | 24 | 1008.9 |
| 20260831221520 | 83 | 0 | 5.0 | 10.0 | 0.00 | 0.00 | 0.00 | 25 | 1009.0 |
| 20260831220521 | 83 | 23 | 3.0 | 6.0 | 0.00 | 0.00 | 0.00 | 26 | 1009.3 |
| 20260831215519 | 82 | 0 | 4.0 | 9.0 | 0.00 | 0.00 | 0.00 | 24 | 1009.4 |
| 20260831214519 | 82 | 0 | 4.0 | 9.0 | 0.00 | 0.00 | 0.00 | 26 | 1009.6 |
| 20260831213519 | 82 | 0 | 4.0 | 9.0 | 0.00 | 0.00 | 0.00 | 26 | 1009.7 |
| 20260831212519 | 81 | 0 | 3.0 | 6.0 | 0.00 | 0.00 | 0.00 | 26 | 1010.0 |
| 20260831211519 | 81 | 0 | 4.0 | 11.0 | 0.00 | 0.00 | 0.00 | 27 | 1010.0 |
| 20260831210519 | 81 | 0 | 4.0 | 10.0 | 0.00 | 0.00 | 0.00 | 26 | 1010.3 |
| 20260831205539 | 80 | 23 | 4.0 | 14.0 | 0.00 | 0.00 | 0.00 | 27 | 1010.3 |
| 20260831204520 | 80 | 23 | 3.0 | 9.0 | 0.00 | 0.00 | 0.00 | 27 | 1010.5 |
| 20260831203519 | 80 | 0 | 4.0 | 10.0 | 0.00 | 0.00 | 0.00 | 28 | 1010.7 |
| 20260831202519 | 79 | 0 | 3.0 | 9.0 | 0.00 | 0.00 | 0.00 | 30 | 1011.1 |
| 20260831201519 | 78 | 0 | 4.0 | 9.0 | 0.00 | 0.00 | 0.00 | 29 | 1011.2 |
| 20260831200519 | 78 | 0 | 3.0 | 9.0 | 0.00 | 0.00 | 0.00 | 30 | 1011.3 |
| 20260831195519 | 77 | 0 | 4.0 | 8.0 | 0.00 | 0.00 | 0.00 | 31 | 1011.4 |
| 20260831194519 | 76 | 0 | 3.0 | 6.0 | 0.00 | 0.00 | 0.00 | 30 | 1011.4 |
| 20260831193519 | 76 | 0 | 3.0 | 8.0 | 0.00 | 0.00 | 0.00 | 30 | 1011.6 |
| 20260831192519 | 76 | 45 | 3.0 | 10.0 | 0.00 | 0.00 | 0.00 | 30 | 1011.8 |
| 20260831191539 | 75 | 23 | 2.0 | 5.0 | 0.00 | 0.00 | 0.00 | 30 | 1012.0 |
| 20260831190519 | 75 | 23 | 3.0 | 7.0 | 0.00 | 0.00 | 0.00 | 33 | 1012.2 |
| 20260831185519 | 74 | 23 | 2.0 | 5.0 | 0.00 | 0.00 | 0.00 | 33 | 1012.4 |
| 20260831184519 | 74 | 23 | 2.0 | 6.0 | 0.00 | 0.00 | 0.00 | 34 | 1012.5 |
| 20260831183518 | 73 | 45 | 2.0 | 9.0 | 0.00 | 0.00 | 0.00 | 33 | 1012.7 |
| 20260831182519 | 73 | 45 | 2.0 | 4.0 | 0.00 | 0.00 | 0.00 | 34 | 1012.8 |
| 20260831181519 | 72 | 45 | 2.0 | 7.0 | 0.00 | 0.00 | 0.00 | 35 | 1013.0 |
| 20260831180519 | 71 | 23 | 4.0 | 12.0 | 0.00 | 0.00 | 0.00 | 37 | 1013.1 |
| 20260831175539 | 70 | 23 | 4.0 | 8.0 | 0.00 | 0.00 | 0.00 | 37 | 1013.1 |
| 20260831174518 | 70 | 23 | 3.0 | 7.0 | 0.00 | 0.00 | 0.00 | 39 | 1013.2 |
| 20260831173519 | 69 | 23 | 2.0 | 8.0 | 0.00 | 0.00 | 0.00 | 40 | 1013.4 |
| 20260831172519 | 69 | 45 | 2.0 | 4.0 | 0.00 | 0.00 | 0.00 | 42 | 1013.4 |
| 20260831171519 | 68 | 23 | 3.0 | 7.0 | 0.00 | 0.00 | 0.00 | 41 | 1013.6 |
| 20260831170519 | 67 | 23 | 3.0 | 8.0 | 0.00 | 0.00 | 0.00 | 42 | 1013.5 |
| 20260831165519 | 67 | 23 | 2.0 | 4.0 | 0.00 | 0.00 | 0.00 | 44 | 1013.7 |
| 20260831164538 | 66 | 23 | 4.0 | 9.0 | 0.00 | 0.00 | 0.00 | 42 | 1013.8 |
| 20260831163518 | 65 | 23 | 2.0 | 5.0 | 0.00 | 0.00 | 0.00 | 45 | 1013.7 |
| 20260831162519 | 64 | 23 | 3.0 | 8.0 | 0.00 | 0.00 | 0.00 | 44 | 1013.8 |
| 20260831161539 | 64 | 23 | 4.0 | 9.0 | 0.00 | 0.00 | 0.00 | 43 | 1013.9 |
| 20260831160519 | 63 | 23 | 3.0 | 7.0 | 0.00 | 0.00 | 0.00 | 46 | 1014.0 |
| 20260831155518 | 62 | 0 | 2.0 | 6.0 | 0.00 | 0.00 | 0.00 | 45 | 1013.9 |
| 20260831154518 | 61 | 23 | 2.0 | 5.0 | 0.00 | 0.00 | 0.00 | 47 | 1014.0 |
| 20260831153518 | 61 | 0 | 2.0 | 4.0 | 0.00 | 0.00 | 0.00 | 47 | 1014.1 |
| 20260831152519 | 60 | 0.0 | 1.0 | 0.00 | 0.00 | 0.00 | 46 | 1014.2 | |
| 20260831151518 | 59 | 0.0 | 1.0 | 0.00 | 0.00 | 0.00 | 45 | 1014.2 | |
| 20260831150520 | 59 | 0.0 | 0.0 | 0.00 | 0.00 | 0.00 | 48 | 1014.1 | |
| 20260831145519 | 58 | 0.0 | 2.0 | 0.00 | 0.00 | 0.00 | 48 | 1014.0 | |
| 20260831144559 | 56 | 90 | 3.0 | 6.0 | 0.00 | 0.00 | 0.00 | 50 | 1013.7 |
| 20260831143518 | 53 | 0.0 | 0.0 | 0.00 | 0.00 | 0.00 | 57 | 1013.7 | |
| 20260831142521 | 52 | 0.0 | 2.0 | 0.00 | 0.00 | 0.00 | 59 | 1013.5 | |
| 20260831141539 | 50 | 0 | 1.0 | 5.0 | 0.00 | 0.00 | 0.00 | 63 | 1013.2 |
| 20260831140518 | 49 | 0 | 1.0 | 3.0 | 0.00 | 0.00 | 0.00 | 64 | 1013.3 |
| 20260831135518 | 49 | 0 | 1.0 | 4.0 | 0.00 | 0.00 | 0.00 | 65 | 1013.4 |
| 20260831134520 | 49 | 0 | 3.0 | 5.0 | 0.00 | 0.00 | 0.00 | 64 | 1013.4 |
| 20260831133520 | 49 | 0 | 4.0 | 6.0 | 0.00 | 0.00 | 0.00 | 64 | 1013.3 |
| 20260831132520 | 49 | 0 | 5.0 | 7.0 | 0.00 | 0.00 | 0.00 | 64 | 1013.4 |
| 20260831131518 | 49 | 23 | 1.0 | 4.0 | 0.00 | 0.00 | 0.00 | 64 | 1013.4 |
| 20260831130520 | 49 | 0.0 | 1.0 | 0.00 | 0.00 | 0.00 | 64 | 1013.4 | |
| 20260831125538 | 50 | 0.0 | 0.0 | 0.00 | 0.00 | 0.00 | 64 | 1013.4 | |
| 20260831124620 | 49 | 0.0 | 0.0 | 0.00 | 0.00 | 0.00 | 65 | 1013.5 | |
| 20260831123520 | 50 | 0.0 | 0.0 | 0.00 | 0.00 | 0.00 | 65 | 1013.6 | |
| 20260831122520 | 50 | 23 | 1.0 | 3.0 | 0.00 | 0.00 | 0.00 | 64 | 1013.5 |
| 20260831121520 | 50 | 0.0 | 2.0 | 0.00 | 0.00 | 0.00 | 63 | 1013.3 | |
| 20260831120520 | 51 | 0.0 | 2.0 | 0.00 | 0.00 | 0.00 | 63 | 1013.5 | |
| 20260831115520 | 51 | 45 | 1.0 | 2.0 | 0.00 | 0.00 | 0.00 | 63 | 1013.4 |
| 20260831114520 | 51 | 23 | 1.0 | 3.0 | 0.00 | 0.00 | 0.00 | 64 | 1013.3 |
| 20260831113520 | 51 | 23 | 1.0 | 3.0 | 0.00 | 0.00 | 0.00 | 65 | 1013.4 |
| 20260831112521 | 51 | 0.0 | 0.0 | 0.00 | 0.00 | 0.00 | 65 | 1013.4 | |
| 20260831111520 | 52 | 0.0 | 0.0 | 0.00 | 0.00 | 0.00 | 63 | 1013.5 | |
| 20260831110520 | 54 | 0.0 | 0.0 | 0.00 | 0.00 | 0.00 | 62 | 1013.6 | |
| 20260831105600 | 55 | 0.0 | 0.0 | 0.00 | 0.00 | 0.00 | 61 | 1013.5 | |
| 20260831104519 | 55 | 0.0 | 0.0 | 0.00 | 0.00 | 0.00 | 59 | 1013.5 | |
| 20260831103520 | 56 | 0.0 | 0.0 | 0.00 | 0.00 | 0.00 | 56 | 1013.6 | |
| 20260831102520 | 56 | 0.0 | 0.0 | 0.00 | 0.00 | 0.00 | 56 | 1013.5 | |
| 20260831101540 | 56 | 0.0 | 0.0 | 0.00 | 0.00 | 0.00 | 54 | 1013.4 | |
| 20260831100520 | 57 | 0.0 | 0.0 | 0.00 | 0.00 | 0.00 | 54 | 1013.5 | |
| 20260831095540 | 57 | 0.0 | 0.0 | 0.00 | 0.00 | 0.00 | 54 | 1013.6 | |
| 20260831094520 | 57 | 0.0 | 0.0 | 0.00 | 0.00 | 0.00 | 55 | 1013.7 | |
| 20260831093520 | 57 | 0.0 | 0.0 | 0.00 | 0.00 | 0.00 | 54 | 1013.7 | |
| 20260831092600 | 57 | 0.0 | 0.0 | 0.00 | 0.00 | 0.00 | 55 | 1013.8 | |
| 20260831091519 | 56 | 0.0 | 0.0 | 0.00 | 0.00 | 0.00 | 55 | 1013.9 | |
| 20260831090540 | 56 | 0.0 | 0.0 | 0.00 | 0.00 | 0.00 | 56 | 1013.9 | |
| 20260831085539 | 56 | 0.0 | 2.0 | 0.00 | 0.00 | 0.00 | 57 | 1014.0 | |
| 20260831084520 | 57 | 0.0 | 0.0 | 0.00 | 0.00 | 0.00 | 55 | 1014.1 | |
| 20260831083520 | 57 | 0.0 | 0.0 | 0.00 | 0.00 | 0.00 | 56 | 1014.0 | |
| 20260831082520 | 57 | 0.0 | 1.0 | 0.00 | 0.00 | 0.00 | 56 | 1014.0 | |
| 20260831081520 | 57 | 0.0 | 0.0 | 0.00 | 0.00 | 0.00 | 56 | 1014.0 | |
| 20260831080519 | 57 | 0.0 | 0.0 | 0.00 | 0.00 | 0.00 | 56 | 1013.9 | |
| 20260831075519 | 57 | 0.0 | 0.0 | 0.00 | 0.00 | 0.00 | 54 | 1014.0 | |
| 20260831074519 | 58 | 0.0 | 2.0 | 0.00 | 0.00 | 0.00 | 53 | 1014.0 | |
| 20260831073520 | 57 | 0.0 | 2.0 | 0.00 | 0.00 | 0.00 | 53 | 1014.1 | |
| 20260831072520 | 57 | 0.0 | 0.0 | 0.00 | 0.00 | 0.00 | 54 | 1014.1 | |
| 20260831071519 | 57 | 0.0 | 3.0 | 0.00 | 0.00 | 0.00 | 54 | 1014.0 | |
| 20260831070520 | 57 | 270 | 1.0 | 3.0 | 0.00 | 0.00 | 0.00 | 54 | 1013.9 |
| 20260831065520 | 58 | 0.0 | 2.0 | 0.00 | 0.00 | 0.00 | 52 | 1013.9 | |
| 20260831064519 | 59 | 0.0 | 0.0 | 0.00 | 0.00 | 0.00 | 50 | 1013.9 | |
| 20260831063519 | 60 | 0.0 | 1.0 | 0.00 | 0.00 | 0.00 | 48 | 1013.9 | |
| 20260831062519 | 60 | 0.0 | 2.0 | 0.00 | 0.00 | 0.00 | 48 | 1013.8 | |
| 20260831061520 | 60 | 0.0 | 1.0 | 0.00 | 0.00 | 0.00 | 48 | 1013.9 | |
| 20260831060520 | 59 | 0.0 | 0.0 | 0.00 | 0.00 | 0.00 | 49 | 1013.8 | |
| 20260831055520 | 59 | 0.0 | 0.0 | 0.00 | 0.00 | 0.00 | 50 | 1013.9 | |
| 20260831054539 | 60 | 0.0 | 0.0 | 0.00 | 0.00 | 0.00 | 50 | 1013.9 | |
| 20260831053520 | 60 | 0.0 | 0.0 | 0.00 | 0.00 | 0.00 | 49 | 1014.0 | |
| 20260831052539 | 60 | 0.0 | 0.0 | 0.00 | 0.00 | 0.00 | 48 | 1013.8 | |
| 20260831051519 | 61 | 0.0 | 1.0 | 0.00 | 0.00 | 0.00 | 48 | 1014.0 | |
| 20260831050539 | 61 | 0.0 | 0.0 | 0.00 | 0.00 | 0.00 | 46 | 1013.9 | |
| 20260831045520 | 63 | 0.0 | 0.0 | 0.00 | 0.00 | 0.00 | 44 | 1014.0 | |
| 20260831044539 | 64 | 0.0 | 1.0 | 0.00 | 0.00 | 0.00 | 40 | 1014.1 | |
| 20260831043519 | 64 | 0.0 | 2.0 | 0.00 | 0.00 | 0.00 | 40 | 1013.9 | |
| 20260831042520 | 63 | 0.0 | 0.0 | 0.00 | 0.00 | 0.00 | 42 | 1013.9 | |
| 20260831041519 | 64 | 0.0 | 0.0 | 0.00 | 0.00 | 0.00 | 43 | 1014.0 | |
| 20260831040519 | 64 | 0.0 | 0.0 | 0.00 | 0.00 | 0.00 | 42 | 1014.0 | |
| 20260831035519 | 63 | 0.0 | 1.0 | 0.00 | 0.00 | 0.00 | 43 | 1014.0 | |
| 20260831034519 | 63 | 0.0 | 0.0 | 0.00 | 0.00 | 0.00 | 44 | 1013.9 | |
| 20260831033519 | 63 | 0.0 | 0.0 | 0.00 | 0.00 | 0.00 | 45 | 1013.9 | |
| 20260831032519 | 64 | 0.0 | 0.0 | 0.00 | 0.00 | 0.00 | 45 | 1013.8 | |
| 20260831031539 | 65 | 0.0 | 0.0 | 0.00 | 0.00 | 0.00 | 44 | 1013.6 | |
| 20260831030519 | 65 | 0.0 | 0.0 | 0.00 | 0.00 | 0.00 | 43 | 1013.5 | |
| 20260831025519 | 65 | 0.0 | 1.0 | 0.00 | 0.00 | 0.00 | 43 | 1013.4 | |
| 20260831024559 | 65 | 0.0 | 0.0 | 0.00 | 0.00 | 0.00 | 45 | 1013.3 | |
| 20260831023519 | 67 | 0.0 | 0.0 | 0.00 | 0.00 | 0.00 | 43 | 1013.4 | |
| 20260831022519 | 69 | 0.0 | 0.0 | 0.00 | 0.00 | 0.00 | 42 | 1013.5 | |
| 20260831021539 | 69 | 0.0 | 0.0 | 0.00 | 0.00 | 0.00 | 40 | 1013.6 | |
| 20260831020519 | 71 | 0.0 | 0.0 | 0.00 | 0.00 | 0.00 | 37 | 1013.5 | |
| 20260831015519 | 72 | 0.0 | 0.0 | 0.00 | 0.00 | 0.00 | 36 | 1013.6 | |
| 20260831014519 | 73 | 0.0 | 0.0 | 0.00 | 0.00 | 0.00 | 33 | 1013.6 |